{"data":{"norad_id":56532,"epoch":"2026-09-20T11:20:19.883040Z","epoch_age_seconds":117141,"freshness":"FRESH","line1":"1 56532U 23065AF  26263.47245235 -.00000211  00000+0  18651-5 0  9998","line2":"2 56532  43.0031 178.2078 0000686 241.5994 118.4789 15.27574844186551","mean_motion":15.27574844,"eccentricity":6.86e-5,"inclination_deg":43.0031,"raan_deg":178.2078,"arg_perigee_deg":241.5994,"mean_anomaly_deg":118.4789,"bstar":1.8651e-6,"rev_number":18655,"period_min":94.267066890766,"perigee_km":482.59385657664,"apogee_km":483.53521342724,"semimajor_km":6861.2015350019,"source":"CELESTRAK","updated_at":"2026-09-21T09:00:33.474958Z"}}